This is the latest recevied weather packets stored in our database for station/object PY2SDN-13. If no packets are shown the sender has not sent any weather packets the latest 10 day(s).
| Time | Temp. | Humidity | Pressure | Rain* | Wind** | Luminosity | Snow |
|---|---|---|---|---|---|---|---|
| 1777547704 | 25.56° C | 26% | 1012.9 hPa | 0 mm | - | 0 W/m² | - |
| 1777546804 | 23.89° C | 26% | 1012.4 hPa | 0 mm | - | 0 W/m² | - |
| 1777545904 | 23.33° C | 26% | 1012.3 hPa | 0 mm | - | 0 W/m² | - |
| 1777545004 | 21.67° C | 26% | 1011.9 hPa | 0 mm | - | 0 W/m² | - |
| 1777544104 | 21.67° C | 26% | 1011.4 hPa | 0 mm | - | 0 W/m² | - |
| 1777543204 | 21.11° C | 26% | 1011.2 hPa | 0 mm | - | 0 W/m² | - |
| 1777542304 | 20.56° C | 26% | 1010.6 hPa | 0 mm | - | 0 W/m² | - |
| 1777541404 | 20.56° C | 26% | 1010.6 hPa | 0 mm | - | 0 W/m² | - |
| 1777540504 | 20.56° C | 26% | 1010.3 hPa | 0 mm | - | 0 W/m² | - |
| 1777539604 | 20.56° C | 26% | 1010.2 hPa | 0 mm | - | 0 W/m² | - |
| 1777538704 | 20.56° C | 26% | 1010.2 hPa | 0 mm | - | 0 W/m² | - |
| 1777537804 | 20.56° C | 26% | 1010.1 hPa | 0 mm | - | 0 W/m² | - |
| 1777536904 | 20.56° C | 26% | 1009.8 hPa | 0 mm | - | 0 W/m² | - |
| 1777536004 | 20.56° C | 26% | 1010.3 hPa | 0 mm | - | 0 W/m² | - |
| 1777535103 | 20° C | 26% | 1010.4 hPa | 0 mm | - | 0 W/m² | - |
| 1777534204 | 20° C | 26% | 1010.6 hPa | 0 mm | - | 0 W/m² | - |
| 1777533303 | 20.56° C | 26% | 1010.7 hPa | 0 mm | - | 0 W/m² | - |
| 1777532403 | 20.56° C | 26% | 1010.8 hPa | 0 mm | - | 0 W/m² | - |
| 1777531503 | 20.56° C | 26% | 1010.9 hPa | 0 mm | - | 0 W/m² | - |
| 1777530603 | 20.56° C | 26% | 1012.5 hPa | 0 mm | - | 0 W/m² | - |
| 1777529703 | 20.56° C | 26% | 1013.3 hPa | 0 mm | - | 0 W/m² | - |
| 1777528803 | 20.56° C | 26% | 1013.4 hPa | 0 mm | - | 0 W/m² | - |
| 1777527904 | 20.56° C | 26% | 1015.8 hPa | 0 mm | - | 0 W/m² | - |
| 1777527004 | 21.11° C | 26% | 1016.3 hPa | 0 mm | - | 0 W/m² | - |
| 1777526104 | 21.11° C | 26% | 1016.4 hPa | 0 mm | - | 0 W/m² | - |
* Rain latest hour (hover to see other rain measurements)
** Current wind speed in m/s (hover to see current wind gust speed)